Regional Weather Roundup
Issued by NWS

Home | Current Version | Previous Version | Text Only | Print | Product List | Glossary Off
Versions: 1 2 3 4 5 6 7 8 9 10 11 12 13 14 15 16 17 18 19 20 21 22 23 24 25 26 27 28 29 30 31 32 33 34 35 36 37 38 39 40 41 42 43 44 45 46 47 48 49 50

000
ASUS43 KMKX 200611
RWRWI

WISCONSIN REGIONAL WEATHER ROUNDUP
NATIONAL WEATHER SERVICE MILWAUKEE/SULLIVAN WI
100 AM CDT FRI OCT 20 2017

NOTE: "FAIR" INDICATES FEW OR NO CLOUDS BELOW 12,000 FEET WITH NO
SIGNIFICANT WEATHER AND/OR OBSTRUCTIONS TO VISIBILITY.

WIZ001-002-006>008-014>016-023>028-200700-
NORTHWEST WISCONSIN

CITY           SKY/WX    TMP DP  RH WIND       PRES   REMARKS
SUPERIOR ARPT  FAIR      44  37  76 CALM      29.90F
6HR MIN TEMP:  42; 6HR MAX TEMP:  63;

ASHLAND        FAIR      41  36  82 S6        29.93F
6HR MIN TEMP:  41; 6HR MAX TEMP:  61;

HAYWARD        FAIR      55  37  50 S6        29.96S
6HR MIN TEMP:  53; 6HR MAX TEMP:  60;

SIREN          FAIR      60  40  49 S10       29.93S
6HR MIN TEMP:  58; 6HR MAX TEMP:  62;

CUMBERLAND     FAIR      50  36  57 S3        29.96S
RICE LAKE      FAIR      49  37  65 CALM      29.98S
6HR MIN TEMP:  48; 6HR MAX TEMP:  59;

CHETEK         FAIR      49  39  67 E12       29.97F
6HR MIN TEMP:  49; 6HR MAX TEMP:  60;

LADYSMITH      FAIR      53  36  53 SE6       30.01S
6HR MIN TEMP:  50; 6HR MAX TEMP:  60;

EAU CLAIRE     FAIR      51  37  58 S3        29.98F
6HR MIN TEMP:  50; 6HR MAX TEMP:  60;

MENOMONIE      FAIR      49  39  67 CALM      29.98S
6HR MIN TEMP:  49; 6HR MAX TEMP:  59;

NEW RICHMOND   FAIR      54  40  59 S7        29.94F
6HR MIN TEMP:  54; 6HR MAX TEMP:  61;

OSCEOLA        FAIR      56  42  58 S6        29.96S
6HR MIN TEMP:  55; 6HR MAX TEMP:  61;

$$

WIZ003>005-009-010-017-018-200700-
NORTH CENTRAL WISCONSIN

CITY           SKY/WX    TMP DP  RH WIND       PRES   REMARKS
MANITOWISH WTR FAIR      47  36  63 S5        29.99F
6HR MIN TEMP:  45; 6HR MAX TEMP:  55;

ARBOR VITAE    FAIR      52  36  53 S8        30.01S
6HR MIN TEMP:  52; 6HR MAX TEMP:  57;

WOODRUFF       FAIR      52  36  53 S8        30.01S
6HR MIN TEMP:  52; 6HR MAX TEMP:  57;

RHINELANDER    FAIR      55  35  47 SW12      30.03S
6HR MIN TEMP:  54; 6HR MAX TEMP:  58;

EAGLE RIVER    FAIR      39  32  75 CALM      30.02S
6HR MIN TEMP:  39; 6HR MAX TEMP:  56;

LAND O LAKES   FAIR      38  35  88 CALM      30.03S
6HR MIN TEMP:  38; 6HR MAX TEMP:  55;

PHILLIPS       FAIR      52  36  53 S6        30.00S
6HR MIN TEMP:  52; 6HR MAX TEMP:  56;

TOMAHAWK       FAIR      44  35  70 CALM      30.04S
6HR MIN TEMP:  44; 6HR MAX TEMP:  50;

MEDFORD        FAIR      46  35  63 S6        30.03S
6HR MIN TEMP:  46; 6HR MAX TEMP:  53;

MERRILL        FAIR      54  35  48 CALM      30.05S
6HR MIN TEMP:  53; 6HR MAX TEMP:  58;

$$

WIZ029-030-035-036-043>047-200700-
CENTRAL WISCONSIN

CITY           SKY/WX    TMP DP  RH WIND       PRES   REMARKS
WAUSAU         FAIR      53  36  52 SE6       30.03F
6HR MIN TEMP:  51; 6HR MAX TEMP:  59;

MOSINEE        FAIR      46  36  66 S7        30.06R
MARSHFIELD     FAIR      47  35  63 S8        30.03S
6HR MIN TEMP:  47; 6HR MAX TEMP:  60;

STEVENS POINT  FAIR      49  34  56 S5        30.06S
6HR MIN TEMP:  47; 6HR MAX TEMP:  55;

WAUPACA        FAIR      50  37  60 S5        30.08S
6HR MIN TEMP:  48; 6HR MAX TEMP:  59;

WAUTOMA        FAIR      42  38  85 CALM      30.08F
6HR MIN TEMP:  41; 6HR MAX TEMP:  61;

WISC RAPIDS    FAIR      51  35  54 S6        30.06S
6HR MIN TEMP:  51; 6HR MAX TEMP:  60;

CAMP DOUGLAS   FAIR      56  38  51 S6        30.04S
6HR MIN TEMP:  43; 6HR MAX TEMP:  57;

$$

WIZ011>013-019>022-031-037>040-048>050-200700-
NORTHEAST WISCONSIN

CITY           SKY/WX    TMP DP  RH WIND       PRES   REMARKS
ANTIGO         FAIR      46  35  63 SW5       30.06S
6HR MIN TEMP:  44; 6HR MAX TEMP:  52;

SHAWANO        FAIR      52  37  56 CALM      30.06S
6HR MIN TEMP:  49; 6HR MAX TEMP:  61;

OCONTO         FAIR      43  37  77 CALM      30.07S
6HR MIN TEMP:  43; 6HR MAX TEMP:  58;

STURGEON BAY   FAIR      53  36  52 S9        30.08F
6HR MIN TEMP:  53; 6HR MAX TEMP:  58;

GREEN BAY      FAIR      48  39  71 S5        30.08S
6HR MIN TEMP:  48; 6HR MAX TEMP:  58;

MANITOWOC      FAIR      48  34  58 S5        30.11S
6HR MIN TEMP:  48; 6HR MAX TEMP:  55;

APPLETON       FAIR      48  32  53 S7        30.07S
CLINTONVILLE   NOT AVBL
OSHKOSH        FAIR      51  38  60 S12       30.08S
6HR MIN TEMP:  50; 6HR MAX TEMP:  56;

$$

WIZ032>034-041-042-053>061-200700-
SOUTHWEST WISCONSIN

CITY           SKY/WX    TMP DP  RH WIND       PRES   REMARKS
LA CROSSE      FAIR      60  43  53 SE9       30.01F
6HR MIN TEMP:  57; 6HR MAX TEMP:  62;

SPARTA         FAIR      61  44  53 S8        30.03S
6HR MIN TEMP:  45; 6HR MAX TEMP:  62;

VIROQUA        FAIR      57  43  59 S9        30.05F
6HR MIN TEMP:  56; 6HR MAX TEMP:  60;

BOSCOBEL       FAIR      46  42  86 CALM      30.07F
6HR MIN TEMP:  46; 6HR MAX TEMP:  59;

PRAIRIE DU CHI FAIR      55  43  65 E5        30.06S
6HR MIN TEMP:  53; 6HR MAX TEMP:  61;

PLATTEVILLE    FAIR      54  46  74 SE7       30.09S
6HR MIN TEMP:  53; 6HR MAX TEMP:  60;

$$

WIZ056-057-062-063-064-067-068-200700-
SOUTH CENTRAL WISCONSIN

CITY           SKY/WX    TMP DP  RH WIND       PRES   REMARKS
REEDSBURG      FAIR      57  39  51 S10       30.06F
6HR MIN TEMP:  50; 6HR MAX TEMP:  61;

BARABOO/DELLS  FAIR      55  36  48 S7        30.07F
6HR MIN TEMP:  52; 6HR MAX TEMP:  57;

LONE ROCK      FAIR      53  41  63 E3        30.07F
6HR MIN TEMP:  45; 6HR MAX TEMP:  55;

MINERAL POINT  FAIR      54  41  62 SE8       30.09S
MADISON        FAIR      54  37  52 S6        30.10S
6HR MIN TEMP:  54; 6HR MAX TEMP:  62;

MIDDLETON      FAIR      56  36  46 S7        30.10S
6HR MIN TEMP:  48; 6HR MAX TEMP:  58;

WATERTOWN      FAIR      48  36  62 SE5       30.11S
6HR MIN TEMP:  47; 6HR MAX TEMP:  57;

MONROE         FAIR      54  37  54 S10       30.10S
JANESVILLE     FAIR      54  37  54 S8        30.11S
$$

WIZ051-052-058>065-066-070>072-200700-
SOUTHEAST WISCONSIN

CITY           SKY/WX    TMP DP  RH WIND       PRES   REMARKS
MILWAUKEE      FAIR      55  27  34 S7        30.13F
6HR MIN TEMP:  53; 6HR MAX TEMP:  58;

WAUKESHA       FAIR      50  27  40 S6        30.14S
MILWAUKEE/TIMM FAIR      50  27  40 S7        30.13F
RACINE         FAIR      56  30  37 S7        30.15S
6HR MIN TEMP:  53; 6HR MAX TEMP:  57;

BURLINGTON     FAIR      43  40  88 CALM      30.13F
6HR MIN TEMP:  42; 6HR MAX TEMP:  55;

KENOSHA        FAIR      51  33  50 S7        30.14S
6HR MIN TEMP:  50; 6HR MAX TEMP:  55;

FOND DU LAC    FAIR      51  34  52 S7        30.09S
6HR MIN TEMP:  50; 6HR MAX TEMP:  58;

SHEBOYGAN      FAIR      45  34  65 S5        30.11S
6HR MIN TEMP:  44; 6HR MAX TEMP:  52;

WEST BEND      FAIR      54  28  37 S9        30.11S
JUNEAU         FAIR      51  35  53 S7        30.11S
6HR MIN TEMP:  50; 6HR MAX TEMP:  57;

$$

LSZ147-162-200700-
LAKE SUPERIOR

STATION/POSITION TIME  TEMP    WIND        PRES    WAVE
                       AIR SEA DIR/SP/G            HT/PER
                 (UTC) (F)     (DEG/KT/KT) (MB)    (FT/S)
W MID LAKE BUOY  0450   56 52              1012.9F   1/ 2
DEVILS ISLAND    0600   61     210/ 11/ 13 1012.7F
SAXON HARBOR     0540   60     190/  7/ 13 1012.9F
$$

LMZ867-665-643>646-200700-
LAKE MICHIGAN

STATION/POSITION TIME  TEMP    WIND        PRES    WAVE



USA.gov is the U.S. government's official web portal to all federal, state and local government web resources and services.